Tracking 19909 objects as of 22-Oct-2019
HD Live streaming from Space Station
objects crossing your sky now

IRIDIUM 33 DEB

Track IRIDIUM 33 DEB now!
10-day predictions


NORAD ID: 38244
Int'l Code: 1997-051ZU
Perigee: 591.9 km
Apogee: 611.0 km
Inclination: 86.4 °
Period: 96.6 minutes
Semi major axis: 6972 km
RCS: 0.0063 m2 (small)
Launch date: September 14, 1997
Source: United States (US)
Launch site: TYURATAM MISSILE AND SPACE COMPLEX (TTMTR)

Note: This is SATELLITE DEBRIS
aabbcc
Your satellite tracking list
Your tracking list is empty




NASA's NSSDC Master Catalog

Two Line Element Set (TLE):
1 38244U 97051ZU  19295.13824861  .00006308  00000-0  63190-3 0  9991
2 38244  86.4226 243.7056 0013672  35.2617 324.9512 14.91160072519733
Source of the keplerian elements: AFSPC